This is the latest recevied weather packets stored in our database for station/object KO4LCK. If no packets are shown the sender has not sent any weather packets the latest 10 day(s).
| Time | Temp. | Humidity | Pressure | Rain* | Wind** | Luminosity | Snow |
|---|---|---|---|---|---|---|---|
| 1777702390 | 14.44° C | 65% | 1014.5 hPa | 0 mm | - | 0 W/m² | - |
| 1777702085 | 14.44° C | 66% | 1014.4 hPa | 0 mm | - | 0 W/m² | - |
| 1777701781 | 14.44° C | 68% | 1014.4 hPa | 0 mm | - | 0 W/m² | - |
| 1777701479 | 14.44° C | 69% | 1014.3 hPa | 0 mm | - | 0 W/m² | - |
| 1777701176 | 14.44° C | 73% | 1014.5 hPa | 0 mm | - | 0 W/m² | - |
| 1777700875 | 14.44° C | 74% | 1014.5 hPa | 0 mm | - | 0 W/m² | - |
| 1777700572 | 14.44° C | 76% | 1014.4 hPa | 0 mm | - | 0 W/m² | - |
| 1777700270 | 14.44° C | 78% | 1014.4 hPa | 0 mm | - | 0 W/m² | - |
| 1777699967 | 14.44° C | 78% | 1014.3 hPa | 0 mm | - | 0 W/m² | - |
| 1777699665 | 14.44° C | 79% | 1014.2 hPa | 0 mm | - | 0 W/m² | - |
| 1777699363 | 14.44° C | 79% | 1014.2 hPa | 0 mm | - | 0 W/m² | - |
| 1777699060 | 14.44° C | 80% | 1014.2 hPa | 0 mm | - | 0 W/m² | - |
| 1777698759 | 14.44° C | 80% | 1014.3 hPa | 0 mm | - | 0 W/m² | - |
| 1777698455 | 14.44° C | 81% | 1014.4 hPa | 0 mm | - | 0 W/m² | - |
| 1777698151 | 13.89° C | 86% | 1014.2 hPa | 0 mm | - | 0 W/m² | - |
| 1777697848 | 13.89° C | 86% | 1014.3 hPa | 0 mm | - | 0 W/m² | - |
| 1777697545 | 13.89° C | 88% | 1014.2 hPa | 0 mm | - | 0 W/m² | - |
| 1777697242 | 13.89° C | 90% | 1014 hPa | 0 mm | - | 0 W/m² | - |
| 1777696938 | 13.89° C | 91% | 1014.1 hPa | 0 mm | - | 0 W/m² | - |
| 1777696636 | 13.89° C | 91% | 1014.3 hPa | 0 mm | - | 0 W/m² | - |
| 1777696333 | 13.89° C | 91% | 1014.4 hPa | 0 mm | - | 0 W/m² | - |
| 1777696032 | 13.89° C | 91% | 1014.4 hPa | 0 mm | - | 0 W/m² | - |
| 1777695730 | 13.89° C | 91% | 1014.2 hPa | 0 mm | - | 0 W/m² | - |
| 1777695428 | 13.89° C | 91% | 1014.5 hPa | 0 mm | - | 0 W/m² | - |
| 1777695124 | 13.89° C | 90% | 1014.1 hPa | 0 mm | - | 0 W/m² | - |
* Rain latest hour (hover to see other rain measurements)
** Current wind speed in m/s (hover to see current wind gust speed)